Find Starlink 35320

NORAD ID: 65834 Int'l Des: 2025-221 Owner: SPXS Country: US Constellation: starlink operational
LEOCIRCULAR

現在のビュー

3D地球を読み込み中...

About Starlink 35320

Starlink 35320 (NORAD 65834) is a starlink constellation satellite (v2 mini) launched Sep 29, 2025 by SPXS of US. It operates in LEO, CIRCULAR orbit with a mass of 575.00 kg.

次回通過

Passes for default location (London). Set your location on the main map for personalized predictions.

高度履歴

Loading altitude history...

軌道要素

1 65834U 25221M 26262.72120066 .00002264 00000-0 78086-4 0 9997
2 65834 53.1566 265.4496 0001349 91.7483 268.3674 15.34411544 54466
Epoch: Sep 19, 2026 • Age: 24 hours

現在のステータス

高度 469.5 km
遠地点 / 近地点 N/A
速度 7.63 km/s
衛星直下点 -22.77°S, 165.64°W
打ち上げ日 Sep 29, 2025
運用期間 0.9 years
タイプ internet

技術仕様

分類 Payload
質量 575.00 kg
乾燥質量 530.00 kg
長さ 0.30 m
スパン 29.00 m
形状 ? Box + pan
製造者 SPXS
バスタイプ Starlink V2MO
フェーズステータス In Orbit
所有者/国 SPXS/US

Most Searched